Location: Baturyn
(53.6332°N, 113.5041°W)
Time: 04:59:40
(UTC+00:00)

N. Korean satellite - Pass Details

Date: 09 December 2021
Orbit: 446 x 492 km, 97.3° (Epoch: 16 January)

Event Time Altitude Azimuth Distance (km) Brightness Sun altitude
Rises 11:44:19 0° 30° (NNE) 2,465 10.6 -33.3°
Reaches altitude 10° 11:47:24 10° 62° (ENE) 1,584 9.9 -32.8°
Maximum altitude 11:48:53 12° 88° (E) 1,441 9.7 -32.6°
Drops below altitude 10° 11:50:22 10° 114° (ESE) 1,578 9.8 -32.4°
Sets 11:53:20 0° 145° (SE) 2,416 10.5 -31.9°
